Location: Bathurst
(33.4193°S, 149.5775°E)
Time: 07:10:10
(UTC+11:00)

Envisat - Visible Passes

Search period start: 20 February 2018 00:00
Search period end: 02 March 2018 00:00
Orbit: 764 x 766 km, 98.2° (Epoch: 19 February)

Date Brightness Start Highest point End Pass type
(mag) Time Alt. Az. Time Alt. Az. Time Alt. Az.
20 Feb 4.5 20:10:49 10° SE 20:13:56 16° E 20:17:03 10° NE visible
20 Feb 4.0 21:48:14 10° S 21:53:08 47° WSW 21:58:00 10° NW visible
21 Feb 2.9 21:11:22 10° SSE 21:16:31 73° ENE 21:21:36 10° N visible
21 Feb 6.0 22:53:21 10° SW 22:54:50 11° WSW 22:56:19 10° W visible
22 Feb 3.8 20:35:13 10° SE 20:39:43 30° E 20:44:08 10° NNE visible
22 Feb 5.0 22:14:21 10° SSW 22:18:33 26° WSW 22:22:43 10° NW visible
23 Feb 3.5 21:36:59 10° S 21:42:04 61° WSW 21:47:04 10° NNW visible
24 Feb 3.0 21:00:19 10° SSE 21:05:23 56° E 21:10:22 10° N visible
24 Feb 5.8 22:41:07 10° SSW 22:43:51 15° WSW 22:46:34 10° W visible
25 Feb 4.1 20:24:27 10° SE 20:28:31 23° E 20:32:31 10° NNE visible
25 Feb 4.6 22:02:56 10° S 22:07:30 33° WSW 22:12:01 10° NW visible
26 Feb 3.1 21:25:48 10° S 21:30:57 79° WSW 21:36:02 10° NNW visible
27 Feb 3.3 20:49:20 10° SSE 20:54:13 43° E 20:59:02 10° N visible
27 Feb 5.5 22:29:22 10° SSW 22:32:51 19° WSW 22:36:19 10° WNW visible
28 Feb 4.3 20:13:51 10° SE 20:17:18 18° E 20:20:42 10° NE visible
28 Feb 4.1 21:51:36 10° S 21:56:26 42° WSW 22:01:13 10° NW visible
01 Mar 2.9 21:14:40 10° SSE 21:19:50 81° ENE 21:24:56 10° N visible
